Miscellaneous Local Product
Issued by NWS Hastings, NE

Home | Current Version | Previous Version | Graphics & Text | Print | Product List | Glossary On
Versions: 1 2 3 4 5 6 7 8 9 10 11 12 13 14 15 16 17 18 19 20 21 22 23 24 25 26 27 28 29 30 31 32 33 34 35 36 37 38 39 40 41 42 43 44 45 46 47 48 49 50
000
AXUS43 KGID 240502
MISGRI

GID CWA HOURLY WEATHER ROUNDUP
NATIONAL WEATHER SERVICE HASTINGS NE
1200 AM CDT MON APR 24 2017

NOTE: "FAIR" INDICATES FEW OR NO CLOUDS BELOW 12,000 FEET WITH NO
SIGNIFICANT WEATHER AND/OR OBSTRUCTIONS TO VISIBILITY.

...SOUTH CENTRAL NEBRASKA...

CITY           SKY/WX    TMP DP  RH WIND       PRES   REMARKS
GRAND ISLAND   CLOUDY    54  36  50 S17G25    29.81F
HASTINGS       CLOUDY    55  35  47 S13       29.83F
KEARNEY        CLOUDY    54  30  40 S17G23    29.79F
ORD            CLOUDY    56  32  40 S14       29.76F
YORK           CLOUDY    54  32  43 S16       29.85F
AURORA         PTCLDY    55  34  45 S20       29.82F
LEXINGTON      CLOUDY    55  34  45 S20G25    29.75F
HOLDREGE       CLOUDY    54  33  44 S17       29.78F
HEBRON         PTCLDY    54  33  46 S13G18    29.88F

...NEBRASKA PANHANDLE...

CITY           SKY/WX    TMP DP  RH WIND       PRES   REMARKS
CHADRON        CLOUDY    63  38  39 S26G33    29.52F
ALLIANCE       PTCLDY    54  40  59 S15       29.61F
SCOTTSBLUFF    CLOUDY    58  38  47 SE13      29.60F
SIDNEY         CLOUDY    51  42  71 SE6       29.66F

...WESTERN AND NORTH CENTRAL NEBRASKA...

CITY           SKY/WX    TMP DP  RH WIND       PRES   REMARKS
VALENTINE      CLOUDY    61  34  36 S18G26    29.63F
AINSWORTH      PTCLDY    55  32  42 S16       29.67F
ONEILL         CLOUDY    57  31  37 S14G22    29.74F
BROKEN BOW     CLOUDY    56  32  40 S15       29.74F
IMPERIAL       CLOUDY    54  38  54 SE15      29.68F
NORTH PLATTE   CLOUDY    58  31  35 SE17G24   29.70F
MCCOOK         CLOUDY    56  33  42 S9        29.72F

...EASTERN NEBRASKA...

CITY           SKY/WX    TMP DP  RH WIND       PRES   REMARKS
NORFOLK        PTCLDY    55  32  41 S16G23    29.80F
SO SIOUX CITY  PTCLDY    58  30  34 S17       29.85F
TEKAMAH        CLOUDY    47  37  68 S10       29.87S
COLUMBUS       CLOUDY    55  34  44 S14G21    29.84F
ALBION         CLOUDY    55  34  44 S12       29.80F
OMAHA EPPLEY   CLOUDY    59  33  37 S16       29.88F
OFFUTT AFB     CLOUDY    54  35  47 SE8       29.89F
MILLARD        CLOUDY    60  36  40 S12       29.89F
LINCOLN        CLOUDY    49  33  54 S7        29.90S
NEBRASKA CITY  PTCLDY    53  30  41 S9        29.92F
BEATRICE       CLOUDY    53  36  53 SE7       29.89F
FALLS CITY     CLOUDY    53  37  54 S9        29.93F

...NORTHERN KANSAS...

CITY           SKY/WX    TMP DP  RH WIND       PRES   REMARKS
GOODLAND       CLOUDY    54  38  54 S22       29.69F
HILL CITY      CLOUDY    55  38  52 S9        29.79F
NORTON         CLEAR     54  32  43 SE14G21   29.76F
PHILLIPSBURG   CLEAR     55  34  44 SE18G24   29.81F
SMITH CENTER   PTCLDY    52  36  54 SE14      29.83F
HAYS           CLOUDY    53  37  54 S18       29.83
RUSSELL        CLOUDY    54  36  50 S23       29.83F
CONCORDIA      CLOUDY    53  38  56 S16       29.87F
SALINA         CLOUDY    49  41  74 S6        29.90F
TOPEKA         CLOUDY    54  39  57 S5        29.96F



USA.gov is the U.S. government's official web portal to all federal, state and local government web resources and services.